THORAD AGENA D DEB, 4710

Orbit data source: Space-Track

THORAD AGENA D DEB, 4710 is space debris in SSO originally from a launch on Wed, 08 Apr 1970 UTC launched from the Air Force Western Test Range (AFWTR). Debris objects in space refer to the collection of defunct objects orbiting the Earth. Examples of debris include non-operational satellites, rocket bodies, and fragments generated from explosions, collisions, or faulty payload assembly.

Loading next visibility...
Identifier
4710, 1970-025BY
Orbit
SSO
Country
Flag of USUS
Related business
Manufacturer
Unknown
Mission
Spacecraft
Bus & Motor
Unknown
Mass
Unknown
Launch date (UTC)
1970-04-08 (56 years ago)
Launch vehicle
Unknown
Launch site
Air Force Western Test Range (AFWTR)
Object type
Payload
Rocket body
Debris
Shape & HBR
Unknown shape, 0.1 m
Radar Cross Section
Small (<0.1 m²)

Expand to show TLE details & history
Last TLE update: 16 hours ago

TLE from 16 hours ago
0 THORAD AGENA D DEB
1 04710U 70025BY  25307.77367556  .00000201  00000-0  35665-3 0  9990
2 04710 100.1855 308.8086 0005019  17.7728 165.0508 13.55877858742986
Epoch: 2025-11-03T18:34Z
TLE epoch observation values (Epoch: 2025-11-03T18:34:05.568Z)
Latitude
-2.92251°
Longitude
166.49233°
Altitude
1,057.517 km
Speed
7.321 km/s
True Right ascension
08h 33m 08s
True Declination
-2° 54' 21"
Sunlit
Object was in daylight at epoch
Visualization orbit readout
Latitude
Unknown
Longitude
Unknown
Altitude
Unknown
Speed
Unknown
Apparent Right ascension
Unknown
Apparent Declination
Unknown
Sunlit
N/A
Visualization observer readout
Local Sidereal Time
06:17:55
Azimuth
Unknown
Elevation
Unknown
Doppler factor
Unknown
Orbital elements
Apogee altitude
1,051.757 km
Perigee altitude
1,044.303 km
Semi-major axis
7,426.167 km
Eccentricity
0.0005
Inclination
100.1855°
RAAN
308.8086°
Arg. of periapsis
17.7728°
True anomaly
165.06563°
Mean anomaly
165.0508°
Eccentric anomaly
165.05821°
Mean motion
3.39153 °/min
Orbital period
106.15 mins
BSTAR
0.00035665
Loading maneuver chart data...
Computing Atmospheric mass density...

Documentation

Showing up to 5 results
|